#timestamp,LO_Frequency,Hit,StdDev 
1657202415.2,286046996.6,N
1657202435.1,286046996.5,N
1657202436.0,286046996.5,N
1657202455.8,286047001.5,N
1657202475.6,286047004.2,N
1657202495.5,286047000.9,N
1657202515.3,286046997.0,N
1657202535.1,286046995.6,N
1657202555.9,286047000.7,N
1657202575.7,286047001.3,N
1657202595.6,286047001.9,N
1657202615.4,286047003.9,N
1657202635.2,286047004.8,N
1657202655.1,286047000.0,N
1657202656.0,286047000.0,N
1657202675.8,286046995.8,N
1657202695.7,286046992.0,N
1657202715.5,286046992.2,N
1657202735.3,286046992.1,N
1657202755.2,286046992.9,N
1657202775.9,286046992.1,N
1657202795.7,286046994.3,N
1657202815.6,286046997.9,N
1657202835.4,286046998.7,N
1657202855.2,286046992.3,N
1657202875.1,286046992.1,N
1657202876.0,286046992.1,N
1657202895.8,286046993.1,N
1657202915.7,286046990.3,N
1657202935.5,286046987.2,Y
1657202955.3,286046991.2,P
1657202975.2,286046992.6,N
1657202995.0,286046995.9,N
1657202995.9,286046995.9,N
1657203015.8,286046998.4,N
1657203035.6,286047001.2,N
1657203055.4,286046996.0,N
1657203075.3,286046995.2,N
1657203095.1,286046994.9,N
1657203115.8,286046996.2,N
1657203135.7,286046995.9,N
1657203155.5,286047000.9,N
1657203175.4,286046998.2,N
1657203195.2,286046999.0,N
1657203215.0,286046995.6,N
1657203215.9,286046995.6,N
1657203235.8,286046994.3,N
1657203255.6,286046994.1,N
1657203275.4,286046994.6,N
1657203295.3,286046994.9,N
1657203315.1,286046998.0,N
1657203335.9,286046999.3,N
1657203355.7,286046997.2,N
1657203375.5,286046996.0,N
1657203395.4,286046994.7,N
1657203415.2,286046994.3,N
1657203435.0,286046992.2,Y
1657203435.9,286046992.2,P
1657203455.8,286046997.8,N
1657203475.6,286046998.0,N
1657203495.5,286046994.3,N
1657203515.3,286046992.6,Y
1657203535.1,286046999.7,P
1657203555.9,286047004.0,N
1657203575.7,286047002.2,N
1657203595.6,286047005.3,N
1657203615.4,286047005.1,N
1657203635.2,286047002.5,N
1657203655.1,286047003.9,N
1657203656.0,286047003.9,N
1657203675.8,286047007.6,N
1657203695.6,286047011.7,Y
1657203715.5,286047008.2,P
1657203735.3,286047009.0,P
1657203755.2,286047015.5,P
1657203775.9,286047011.5,N
1657203795.7,286047009.6,N
1657203815.6,286047008.7,N
1657203835.4,286047004.6,N
1657203855.2,286047005.5,N
1657203875.1,286047008.9,N
1657203876.0,286047008.9,N
1657203895.8,286047007.5,N
1657203915.7,286047005.2,N
1657203935.5,286047007.2,N
1657203955.3,286047005.0,N
1657203975.2,286047007.9,N
1657203995.0,286047010.0,Y
1657203995.9,286047010.0,P
1657204015.7,286047005.8,P
1657204035.6,286047005.8,P
1657204055.4,286047010.5,Y
1657204075.3,286047001.1,P
1657204095.1,286046997.3,N
1657204115.8,286046999.1,N
1657204135.7,286046997.7,N
1657204155.5,286046995.8,N
1657204175.4,286047000.8,N
1657204195.2,286046998.7,N
1657204215.0,286046995.2,N
1657204215.9,286046995.2,N
1657204235.8,286047011.9,Y
1657204255.6,286046997.1,P
1657204275.4,286046993.3,P
1657204295.3,286047001.0,N
1657204315.1,286047003.6,N
1657204335.9,286046998.6,N
1657204355.7,286046994.9,N
1657204375.5,286046999.2,N
1657204395.4,286046997.6,N
1657204415.2,286046997.3,N
1657204435.0,286046999.0,N
1657204435.9,286046999.0,N
1657204455.8,286047000.2,N
1657204475.6,286047002.3,N
1657204495.5,286047005.2,N
1657204515.3,286047002.9,N
1657204535.1,286046999.6,N
1657204555.9,286046999.4,N
1657204575.7,286046998.8,N
1657204595.5,286046993.3,N
1657204615.4,286046993.5,N
1657204635.2,286046994.0,N
1657204655.1,286046994.9,N
1657204656.0,286046994.9,N
1657204675.8,286046994.4,N
1657204695.6,286046993.7,N
1657204715.5,286046997.1,N
1657204735.3,286047000.1,N
1657204755.1,286047001.4,N
1657204775.9,286047003.4,N
1657204795.7,286047000.0,N
1657204815.6,286047000.7,N
1657204835.4,286047000.1,N
1657204855.2,286046993.4,N
1657204875.1,286046993.8,N
1657204876.0,286046993.8,N
1657204895.8,286046998.8,N
1657204915.6,286046999.6,N
1657204935.5,286046997.7,N
1657204955.3,286046997.8,N
1657204975.2,286046996.7,N
1657204995.9,286046996.8,N
1657205015.7,286046998.2,N
1657205035.6,286046998.2,N
1657205055.4,286047000.6,N
1657205075.2,286047002.8,N
1657205095.1,286046998.1,N
1657205096.0,286046998.1,N
1657205115.8,286047000.2,N
1657205135.7,286046999.1,N
1657205155.5,286046999.4,N
1657205175.3,286046999.1,N
1657205195.2,286047000.6,N
1657205215.0,286047000.3,N
1657205215.9,286047000.3,N
1657205235.8,286047003.1,N
1657205255.6,286047000.1,N
1657205275.4,286047001.4,N
1657205295.3,286047009.1,Y
1657205315.1,286047008.3,P
1657205335.8,286047007.2,N
1657205355.7,286047007.5,N
1657205375.5,286047006.3,N
1657205395.4,286047006.4,N
1657205415.2,286047010.5,Y
1657205435.0,286047004.1,P
1657205435.9,286047004.1,P
1657205455.8,286047001.7,N
1657205475.6,286047000.8,N
1657205495.4,286047000.2,N
1657205515.3,286047002.6,N
1657205535.1,286047000.6,N
1657205555.9,286046998.9,N
1657205575.7,286046995.8,N
1657205595.5,286046999.2,N
1657205615.4,286047000.5,N
1657205635.2,286047001.5,N
1657205655.0,286047001.8,N
1657205655.9,286047001.8,N
1657205675.8,286047002.5,N
1657205695.6,286047002.1,N
1657205715.5,286047004.6,N
1657205735.3,286047006.9,Y
1657205755.1,286047003.1,P
1657205775.9,286047001.9,N
1657205795.7,286046998.8,N
1657205815.6,286046998.6,N
1657205835.4,286046996.8,N
1657205855.2,286046998.6,N
1657205875.1,286047000.7,N
1657205876.0,286047000.7,N
1657205895.8,286047000.8,N
1657205915.6,286046996.5,N
1657205935.5,286047000.9,N
1657205955.3,286046996.5,N
1657205975.2,286046997.3,N
1657205995.9,286046999.5,N
